Regional Weather Roundup
Issued by NWS

Home | Current Version | Previous Version | Text Only | Print | Product List | Glossary On
Versions: 1 2 3 4 5 6 7 8 9 10 11 12 13 14 15 16 17 18 19 20 21 22 23 24 25 26 27 28
000
ASUS44 KJAN 251210
RWRMS

MISSISSIPPI HOURLY WEATHER ROUNDUP
NATIONAL WEATHER SERVICE JACKSON MS
700 AM CDT THU MAY 25 2017

NOTE: "FAIR: INDICATES FEW OR NO CLOUDS BELOW 12,000 FEET WITH NO
SIGNIFICANT WEATHER AND/OR OBSTRUCTIONS TO VISIBILITY.

MSZ001>002-007>008-010>013-018>021-025>028-034>036-251300-
NORTHWEST MISSISSIPPI

CITY           SKY/WX    TMP DP  RH WIND       PRES   REMARKS
BATESVILLE     FAIR      53  52  96 SW5       29.78S
CLARKSDALE       N/A     55  55 100 MISG      29.79R
CLEVELAND      FAIR      56  56 100 CALM      29.80R
GREENWOOD      SUNNY     54  54 100 S6        29.81R
6HR MIN TEMP:  51; 6HR MAX TEMP:  55; 6HR PCP: TRACE;

GREENVILLE     SUNNY     55  52  89 CALM      29.80R
6HR MIN TEMP:  49; 6HR MAX TEMP:  58;

OLIVE BRANCH   SUNNY    N/A N/A N/A SW5       29.73
OXFORD         FAIR      50  50 100 CALM      29.79R
TUNICA         SUNNY     54  52  94 CALM      29.77S
WINONA         FAIR      51  51 100 CALM      29.80R
$$

MSZ003>006-009-014>017-022>024-029>033-037>039-251300-
NORTHEAST MISSISSIPPI

CITY           SKY/WX    TMP DP  RH WIND       PRES   REMARKS
COLUMBUS AFB   SUNNY     54  54 100 W5        29.78R
6HR MIN TEMP:  50; 6HR MAX TEMP:  55;

CORINTH        FAIR      54  50  87 W6        29.74R
GOLDN TRIANGLE SUNNY     54  46  76 SW5       29.76R
STARKVILLE     FAIR      52  50  93 CALM      29.81R
TUPELO         SUNNY     53  50  89 SW7       29.77R
6HR MIN TEMP:  51; 6HR MAX TEMP:  55;

$$

MSZ040-058-251300-
CENTRAL MISSISSIPPI

CITY           SKY/WX    TMP DP  RH WIND       PRES   REMARKS
JACKSON INTL   SUNNY     55  53  93 CALM      29.82R
6HR MIN TEMP:  51; 6HR MAX TEMP:  57;

JACKSON HAWKNS SUNNY     55  52  89 CALM      29.82R
6HR MIN TEMP:  53; 6HR MAX TEMP:  59;

MADISON        FAIR      52  52 100 CALM      29.81R
MERIDIAN KEY   SUNNY     54  52  93 S3        29.82R
6HR MIN TEMP:  52; 6HR MAX TEMP:  58;

MERIDIAN NAS   SUNNY     56  50  80 W5        29.82R
6HR MIN TEMP:  53; 6HR MAX TEMP:  57; 6HR PCP: TRACE;

VICKSBURG VKS  SUNNY     54  54 100 CALM      29.81R
$$

MSZ059>079-251300-
SOUTH MISSISSIPPI

CITY           SKY/WX    TMP DP  RH WIND       PRES   REMARKS
COLUMBIA       FAIR      52  52 100 CALM      29.87S
HATTIESBURG    SUNNY     55  52  89 SW3       29.85R
6HR MIN TEMP:  52; 6HR MAX TEMP:  59;

LAUREL         FAIR      55  55 100 CALM      29.83S
MCCOMB         SUNNY     52  50  93 CALM      29.84R
6HR MIN TEMP:  49; 6HR MAX TEMP:  57;

NATCHEZ        SUNNY     52  51  97 CALM      29.85R
6HR MIN TEMP:  50; 6HR MAX TEMP:  54;

PINE BELT      NOT AVBL
$$

MSZ080>082-251300-
COASTAL MISSISSIPPI

CITY           SKY/WX    TMP DP  RH WIND       PRES   REMARKS
BAY ST LOUIS   SUNNY     54  54 100 CALM      29.86
BILOXI         SUNNY     62  55  76 NW5       29.84R
6HR MIN TEMP:  60; 6HR MAX TEMP:  64;

PASCAGOULA     SUNNY     58  54  86 N5        29.85R
6HR MIN TEMP:  54; 6HR MAX TEMP:  58;

GULFPORT       SUNNY     58  55  90 W3        29.85R
6HR MIN TEMP:  54; 6HR MAX TEMP:  60;

$$

LAZ007>009-015>016-023>026-251300-
NORTHEAST LOUISIANA

CITY           SKY/WX    TMP DP  RH WIND       PRES   REMARKS
BASTROP        FAIR      52  51  97 CALM      29.83R
TALLULAH/VBURG SUNNY     54  52  93 CALM      29.83R
6HR MIN TEMP:  51; 6HR MAX TEMP:  56;

VIDALIA        FAIR      55  54  96 CALM      29.84R
$$




USA.gov is the U.S. government's official web portal to all federal, state and local government web resources and services.